Waarnemingen

Advertentie
Mijn weer
Inverbervie, Groot Brittannië (3088): temperatuur & dauwpunt: 19.02.2018 09:00:00 - 25.02.2018 09:00:00 (GMT)Inverbervie, Groot Brittannië (3088): temperatuur -20cm & temperatuur -100cm: 19.02.2018 09:00:00 - 25.02.2018 09:00:00 (GMT)Inverbervie, Groot Brittannië (3088): windsnelheid & windstoten: 19.02.2018 09:00:00 - 25.02.2018 09:00:00 (GMT)Inverbervie, Groot Brittannië (3088): windrichting: 19.02.2018 09:00:00 - 25.02.2018 09:00:00 (GMT)Inverbervie, Groot Brittannië (3088): luchtdruk: 19.02.2018 09:00:00 - 25.02.2018 09:00:00 (GMT)Inverbervie, Groot Brittannië (3088): zicht: 19.02.2018 09:00:00 - 25.02.2018 09:00:00 (GMT)Inverbervie, Groot Brittannië (3088): neerslag: 19.02.2018 09:00:00 - 25.02.2018 09:00:00 (GMT)
Datum & Tijd tt [°C] td [°C] tt -20cm [°C] tt -100cm [°C] ff [km/u] ff [kn] fx [km/u] fx [kn] dd ppp [hPa] vv [km] rr [mm]
25.02.2018 09:00:00 3,2 -0,7 3,7 4,7 21 11 - - ZZO 1032,4 23 0,0
25.02.2018 08:00:00 3,2 -1,1 - - 28 15 - - Z 1032,3 22 0,0
25.02.2018 07:00:00 3,3 0,6 - - 28 15 - - Z 1031,7 16 0,0
25.02.2018 06:00:00 3,2 -0,8 - - 29 16 - - Z 1031,6 22 0,0
25.02.2018 05:00:00 3,3 -1,3 - - 29 16 - - Z 1031,7 25 0,0
25.02.2018 04:00:00 3,3 -0,8 - - 26 14 - - Z 1031,4 23 0,0
25.02.2018 03:00:00 3,2 -0,4 - - 28 15 - - Z 1031,6 18 0,0
25.02.2018 02:00:00 3,1 -1,0 - - 31 17 - - Z 1031,5 24 0,0
25.02.2018 01:00:00 3,1 -0,6 - - 37 20 50 27 Z 1031,4 22 0,0
25.02.2018 00:00:00 3,1 -0,4 - - 35 19 46 25 ZZO 1031,0 21 0,0
24.02.2018 23:00:00 3,1 0,1 - - 31 17 - - ZZO 1031,0 14 0,0
24.02.2018 22:00:00 3,2 0,2 - - 31 17 - - ZZO 1030,5 18 0,0
24.02.2018 21:00:00 3,1 0,5 - - 34 18 46 25 ZZO 1030,2 15 0,0
24.02.2018 20:00:00 3,2 0,6 - - 37 20 52 28 ZZO 1029,9 13 0,0
24.02.2018 19:00:00 3,1 0,6 - - 41 22 55 30 ZZO 1029,3 11 0,0
24.02.2018 18:00:00 3,4 1,0 - - 37 20 52 28 ZZO 1028,8 12 0,0
24.02.2018 17:00:00 3,5 0,7 - - 41 22 52 28 ZZO 1028,3 14 0,0
24.02.2018 16:00:00 3,7 -0,5 - - 42 23 54 29 ZZO 1028,0 15 0,0
24.02.2018 15:00:00 4,2 -0,5 - - 42 23 54 29 ZZO 1027,9 17 0,0
24.02.2018 14:00:00 4,5 -0,1 - - 41 22 54 29 ZZO 1027,6 15 0,0
24.02.2018 13:00:00 4,2 -0,8 - - 42 23 57 31 ZZO 1027,3 16 0,0
24.02.2018 12:00:00 4,5 0,4 - - 41 22 54 29 ZZO 1027,4 11 0,0
24.02.2018 11:00:00 4,2 0,4 - - 42 23 54 29 ZZO 1027,2 13 0,0
24.02.2018 10:00:00 3,6 0,0 - - 35 19 50 27 ZZO 1026,9 13 0,0
24.02.2018 09:00:00 4,0 0,3 3,7 4,7 35 19 50 27 ZZO 1026,6 15 0,0
24.02.2018 08:00:00 3,1 -0,4 - - 41 22 48 26 ZZO 1026,0 14 0,0
24.02.2018 07:00:00 3,1 -0,1 - - 37 20 52 28 ZZO 1025,4 14 0,0
24.02.2018 06:00:00 3,0 -0,2 - - 39 21 55 30 Z 1024,9 17 0,0
24.02.2018 05:00:00 3,0 -0,4 - - 44 24 57 31 ZZO 1024,3 21 0,0
24.02.2018 04:00:00 3,0 -0,4 - - 46 25 59 32 ZZO 1023,7 16 0,0
24.02.2018 03:00:00 3,0 -0,3 - - 42 23 59 32 ZZO 1023,4 21 0,0
24.02.2018 02:00:00 2,9 -0,4 - - 44 24 61 33 ZZO 1023,5 22 0,0
24.02.2018 01:00:00 3,1 -0,3 - - 48 26 65 35 ZZO 1023,4 23 0,0
24.02.2018 00:00:00 3,2 -0,3 - - 42 23 67 36 ZZO 1023,2 27 0,0
23.02.2018 23:00:00 3,3 -0,4 - - 46 25 63 34 ZZO 1022,9 27 0,0
23.02.2018 22:00:00 3,3 -0,4 - - 41 22 57 31 ZZO 1022,8 20 0,0
23.02.2018 21:00:00 3,7 0,6 - - 39 21 54 29 Z 1022,6 19 0,0
23.02.2018 20:00:00 3,5 0,8 - - 39 21 54 29 Z 1022,6 23 0,0
23.02.2018 19:00:00 3,3 1,4 - - 39 21 55 30 ZZO 1022,5 20 0,0
23.02.2018 18:00:00 3,3 0,9 - - 37 20 50 27 ZZO 1022,5 21 0,0
23.02.2018 17:00:00 3,1 0,0 - - 41 22 50 27 Z 1022,5 26 0,0
23.02.2018 16:00:00 3,4 0,4 - - 34 18 48 26 Z 1022,3 21 0,0
23.02.2018 15:00:00 3,3 -0,4 - - 39 21 50 27 Z 1022,4 21 0,0
23.02.2018 14:00:00 3,8 0,9 - - 34 18 48 26 Z 1022,7 12 0,0
23.02.2018 13:00:00 3,2 -1,1 - - 39 21 50 27 Z 1022,8 17 0,0
23.02.2018 12:00:00 4,1 -0,1 - - 37 20 46 25 ZZW 1023,1 13 0,0
23.02.2018 11:00:00 3,0 -1,1 - - 35 19 - - ZZW 1023,1 15 0,0
23.02.2018 10:00:00 2,5 -0,9 - - 34 18 - - ZZW 1023,1 12 0,0
23.02.2018 09:00:00 1,8 -0,7 3,9 4,5 31 17 - - ZZW 1023,1 10 0,0
23.02.2018 08:00:00 1,4 -0,7 - - 29 16 - - ZZW 1022,8 9 0,0
23.02.2018 07:00:00 0,1 -1,5 - - 22 12 - - ZW 1022,8 7 0,0
23.02.2018 06:00:00 0,2 -1,4 - - 22 12 - - ZW 1022,5 7 0,0
23.02.2018 05:00:00 0,5 -0,9 - - 22 12 - - ZW 1022,7 7 0,0
23.02.2018 04:00:00 0,6 -0,8 - - 21 11 - - ZW 1022,4 7 0,0
23.02.2018 03:00:00 0,6 -1,0 - - 22 12 - - ZW 1022,6 8 0,0
23.02.2018 02:00:00 1,5 -0,7 - - 26 14 - - ZZW 1022,6 12 0,0
23.02.2018 01:00:00 2,3 -0,2 - - 34 18 - - Z 1022,6 12 0,0
23.02.2018 00:00:00 2,7 0,0 - - 35 19 46 25 Z 1022,6 12 0,0
22.02.2018 23:00:00 2,7 0,0 - - 35 19 - - Z 1022,7 15 0,0
22.02.2018 22:00:00 3,0 0,1 - - 34 18 - - Z 1022,7 16 0,0
22.02.2018 21:00:00 3,3 -0,3 - - 34 18 - - Z 1022,9 24 0,0
22.02.2018 20:00:00 3,6 0,8 - - 29 16 - - ZZW 1023,1 16 0,0
22.02.2018 19:00:00 3,1 0,7 - - 34 18 - - Z 1023,0 19 0,0
22.02.2018 18:00:00 3,3 1,2 - - 35 19 - - Z 1022,9 19 0,0
22.02.2018 17:00:00 3,4 1,7 - - 31 17 - - Z 1023,0 19 0,0
22.02.2018 16:00:00 4,1 1,3 - - 35 19 - - Z 1022,9 17 0,0
22.02.2018 15:00:00 4,4 1,4 - - 35 19 - - Z 1023,1 19 0,0
22.02.2018 14:00:00 5,0 2,0 - - 35 19 - - Z 1023,6 21 0,0
22.02.2018 13:00:00 5,3 2,6 - - 29 16 - - Z 1024,2 40 0,0
22.02.2018 12:00:00 4,8 2,7 - - 29 16 - - Z 1024,5 28 0,0
22.02.2018 11:00:00 4,8 3,5 - - 26 14 - - ZZW 1024,6 21 0,0
22.02.2018 10:00:00 4,2 3,3 - - 31 17 - - Z 1025,0 16 0,0
22.02.2018 09:00:00 3,8 3,2 3,7 4,5 28 15 - - Z 1025,3 16 0,0
22.02.2018 08:00:00 3,5 3,0 - - 22 12 - - Z 1025,6 11 0,0
22.02.2018 07:00:00 2,9 2,3 - - 24 13 - - Z 1025,6 12 0,0
22.02.2018 06:00:00 3,0 2,7 - - 21 11 - - Z 1025,7 11 0,0
22.02.2018 05:00:00 3,1 2,9 - - 22 12 - - Z 1025,7 10 0,0
22.02.2018 04:00:00 1,8 1,6 - - 11 6 - - ZZW 1026,2 9 0,0
22.02.2018 03:00:00 2,4 2,2 - - 15 8 - - Z 1026,4 12 0,0
22.02.2018 02:00:00 1,9 1,8 - - 11 6 - - ZZW 1027,0 10 0,0
22.02.2018 01:00:00 2,5 2,4 - - 9 5 - - ZZW 1027,5 10 0,0
22.02.2018 00:00:00 2,2 2,0 - - 4 2 - - W 1028,0 7 0,0
21.02.2018 23:00:00 2,0 1,8 - - 4 2 - - WNW 1028,1 6 0,0
21.02.2018 22:00:00 2,9 2,6 - - 8 4 - - Z 1028,3 8 0,0
21.02.2018 21:00:00 2,6 2,3 - - 8 4 - - Z 1028,3 7 0,0
21.02.2018 20:00:00 2,4 1,8 - - 4 2 - - W 1028,5 11 0,0
21.02.2018 19:00:00 2,3 1,5 - - 9 5 - - ZW 1028,4 10 0,0
21.02.2018 18:00:00 2,6 1,6 - - 11 6 - - Z 1028,3 12 0,0
21.02.2018 17:00:00 3,6 1,9 - - 11 6 - - Z 1028,3 17 0,0
21.02.2018 16:00:00 4,6 1,6 - - 9 5 - - ZZO 1028,4 18 0,0
21.02.2018 15:00:00 5,7 1,2 - - 9 5 - - ZZO 1028,5 18 0,0
21.02.2018 14:00:00 6,2 1,4 - - 5 3 - - ZZO 1028,9 14 0,0
21.02.2018 13:00:00 6,6 1,9 - - 8 4 - - Z 1029,3 14 0,0
21.02.2018 12:00:00 6,5 1,6 - - 5 3 - - OZO 1029,8 13 0,0
21.02.2018 11:00:00 5,1 1,8 - - 5 3 - - NW 1030,0 15 0,0
21.02.2018 10:00:00 3,2 0,3 - - 8 4 - - NW 1030,1 16 0,0
21.02.2018 09:00:00 1,9 -0,4 3,9 4,4 11 6 - - NW 1030,1 18 0,0
21.02.2018 08:00:00 1,3 -0,6 - - 11 6 - - NNW 1029,9 17 0,0
21.02.2018 07:00:00 1,4 -0,5 - - 13 7 - - NNW 1029,8 16 0,0
21.02.2018 06:00:00 2,0 0,0 - - 15 8 - - NNW 1029,7 15 0,0
21.02.2018 05:00:00 1,5 -0,2 - - 11 6 - - NW 1029,6 15 0,0
21.02.2018 04:00:00 1,8 -0,1 - - 15 8 - - NNW 1029,8 15 0,0
21.02.2018 03:00:00 2,0 -0,2 - - 15 8 - - NNW 1030,1 17 0,0
21.02.2018 02:00:00 2,3 0,1 - - 18 10 - - NNW 1030,1 16 0,0
21.02.2018 01:00:00 2,2 0,6 - - 16 9 - - NW 1030,0 14 0,0
21.02.2018 00:00:00 2,5 0,6 - - 21 11 46 25 NNW 1029,9 14 0,0
20.02.2018 23:00:00 2,8 0,6 - - 22 12 - - NW 1029,2 13 0,0
20.02.2018 22:00:00 3,4 0,8 - - 24 13 - - NW 1028,7 14 0,0
20.02.2018 21:00:00 3,7 1,3 - - 26 14 - - NNW 1028,5 15 0,0
20.02.2018 20:00:00 3,7 1,5 - - 16 9 - - NNW 1028,4 15 0,0
20.02.2018 19:00:00 4,3 1,6 - - 18 10 - - NW 1027,9 20 0,0
20.02.2018 18:00:00 4,6 2,1 - - 16 9 - - NNW 1027,3 20 0,0
20.02.2018 17:00:00 6,3 2,4 - - 15 8 - - NW 1026,6 21 0,0
20.02.2018 16:00:00 7,6 2,7 - - 22 12 - - NNW 1025,7 29 0,0
20.02.2018 15:00:00 8,1 2,3 - - 31 17 50 27 NNW 1025,1 23 0,0
20.02.2018 14:00:00 8,0 3,1 - - 37 20 54 29 N 1024,1 24 0,0
20.02.2018 13:00:00 7,7 3,2 - - 34 18 46 25 NNW 1024,1 24 0,0
20.02.2018 12:00:00 7,6 3,9 - - 29 16 - - NW 1023,7 24 0,0
20.02.2018 11:00:00 6,6 3,4 - - 34 18 50 27 NW 1023,2 19 0,0
20.02.2018 10:00:00 5,8 3,2 - - 34 18 50 27 NW 1022,2 22 0,0
20.02.2018 09:00:00 4,9 2,9 3,7 4,4 34 18 48 26 NW 1021,4 27 0,0
20.02.2018 08:00:00 4,5 2,6 - - 28 15 - - NW 1020,9 35 0,0
20.02.2018 07:00:00 4,1 2,9 - - 21 11 - - NW 1020,2 30 0,0
20.02.2018 06:00:00 3,6 3,1 - - 4 2 - - ZW 1019,9 45 0,2
20.02.2018 05:00:00 3,6 3,0 - - 11 6 - - NNW 1019,2 50 0,0
20.02.2018 04:00:00 4,3 3,7 - - 16 9 54 29 NNW 1018,5 45 0,6
20.02.2018 03:00:00 4,5 4,3 - - 35 19 50 27 NNW 1017,4 8 2,6
20.02.2018 02:00:00 5,2 5,2 - - 26 14 - - NW 1017,1 8 1,2
20.02.2018 01:00:00 5,1 5,1 - - 8 4 - - W 1016,9 0,1 0,0
20.02.2018 00:00:00 4,8 4,8 - - 9 5 - - WZW 1016,7 0,1 0,0
19.02.2018 23:00:00 4,8 4,8 - - 11 6 - - Z 1016,7 - 0,0
19.02.2018 22:00:00 5,0 5,0 - - 8 4 - - ZW 1016,9 0,2 0,0
19.02.2018 21:00:00 5,3 5,3 - - 5 3 - - ZZW 1016,9 9 0,0
19.02.2018 20:00:00 5,3 5,3 - - 5 3 - - ZW 1017,2 10 0,0
19.02.2018 19:00:00 5,1 5,1 - - 5 3 - - WZW 1017,1 0,1 0,0
19.02.2018 18:00:00 5,2 5,2 - - 5 3 - - ZZO 1016,8 0,1 0,0
19.02.2018 17:00:00 5,4 5,4 - - 0 0 - - N 1016,9 0,4 0,0
19.02.2018 16:00:00 5,5 5,5 - - 0 0 - - N 1016,7 0,3 0,0
19.02.2018 15:00:00 5,8 5,8 - - 5 3 - - O 1016,5 0,9 0,2
19.02.2018 14:00:00 5,7 5,7 - - 4 2 - - ONO 1016,3 2,6 0,2
19.02.2018 13:00:00 5,4 5,4 - - 5 3 - - ONO 1016,1 1,1 0,0
19.02.2018 12:00:00 5,2 5,2 - - 13 7 - - ONO 1016,0 1,0 0,4
19.02.2018 11:00:00 5,1 5,1 - - 8 4 - - ONO 1015,7 0,2 0,0
19.02.2018 10:00:00 5,1 5,1 - - 8 4 - - NO 1015,4 6 0,2
19.02.2018 09:00:00 4,9 4,9 3,4 4,2 8 4 - - NO 1014,9 6 0,2

tt = temperatuur
td = dauwpunt
tt -20cm = temperatuur -20cm
tt -100cm = temperatuur -100cm
ff = windsnelheid
fx = windstoten
dd = windrichting
ppp = luchtdruk
vv = zicht
rr = neerslag

Weerstations in de omgeving